Flag for USA Past Weather in Fresno, California, USA — Yesterday and Last 2 Weeks

Now
91 °F

Partly sunny.


Feels Like: 88 °F
Forecast: 62 / 91 °F
Wind: 9 mph from Northwest

Location: Fresno Air Terminal

Current Time: May 29, 2017 at 4:07:05 pm

Latest Report: May 29, 2017 at 2:53 pm


Visibility: 10 mi

Pressure: 29.82 "Hg

Humidity: 26%

Dew Point: 52 °F

Location of FresnoLocation

Past Weather in Fresno — Graph

°F

Fresno Temperature Yesterday

Maximum temperature yesterday: 89 °F (at 4:53 pm)
Minimum temperature yesterday: 60 °F (at 5:53 am)
Average temperature yesterday: 75 °F

High & Low Weather Summary for the Past Weeks

 TemperatureHumidityPressure
High101 °F (May 23, 3:53 pm)84% (May 27, 4:53 am)30.07 "Hg (May 27, 4:53 am)
Low50 °F (May 15, 4:53 am)11% (May 19, 5:53 pm)29.62 "Hg (May 24, 7:53 pm)
Average72 °F45%29.89 "Hg
* Reported May 14 2:53 pm — May 29 2:53 pm, Fresno. Weather by CustomWeather, © 2017

Note: Actual official high and low records may vary slightly from our data, if they occured in-between our weather recording intervals... More about our weather records

Advertising

Fresno Weather History for the Previous 24 Hours

Scroll right to see more
 ConditionsComfort  
Time TempWeatherWind HumidityBarometerVisibility
2:53 pm
Mon, May 29
91 °FPartly sunny.9 mph26%29.82 "Hg10 mi
1:53 pm89 °FPartly sunny.8 mph31%29.84 "Hg10 mi
12:53 pm87 °FPartly sunny.8 mph35%29.86 "Hg10 mi
11:53 am84 °FScattered clouds.6 mph38%29.88 "Hg10 mi
10:53 am81 °FScattered clouds.7 mph42%29.88 "Hg10 mi
9:53 am76 °FPartly sunny.3 mph50%29.90 "Hg10 mi
8:53 am72 °FPartly sunny.5 mph59%29.91 "Hg10 mi
7:53 am68 °FPartly sunny.7 mph65%29.92 "Hg10 mi
6:53 am64 °FPartly sunny.8 mph75%29.91 "Hg10 mi
5:53 am64 °FPartly sunny.7 mph78%29.90 "Hg10 mi
4:53 am65 °FPassing clouds.5 mph73%29.89 "Hg10 mi
3:53 am66 °FClear.7 mph73%29.89 "Hg10 mi
2:53 am68 °FClear.7 mph68%29.90 "Hg10 mi
1:53 am69 °FClear.8 mph66%29.90 "Hg10 mi
12:53 am72 °FClear.10 mph59%29.91 "Hg10 mi
11:53 pm
Sun, May 28
74 °FClear.12 mph56%29.91 "Hg10 mi
10:53 pm76 °FClear.12 mph52%29.91 "Hg10 mi
9:53 pm79 °FClear.13 mph41%29.90 "Hg10 mi
8:53 pm80 °FClear.9 mph42%29.89 "Hg10 mi
7:53 pm84 °FPassing clouds.13 mph33%29.89 "Hg10 mi
6:53 pm87 °FPassing clouds.13 mph27%29.88 "Hg10 mi
5:53 pm89 °FPassing clouds.10 mph26%29.89 "Hg10 mi
4:53 pm89 °FPassing clouds.12 mph28%29.90 "Hg10 mi
Weather by CustomWeather, © 2017

See weather overviewHow to use our weather pages